owner,sensor,date,latitude,longitude,air_pressure(mBar),qcFlag 
WAVCIS,ioos:station:WAVCIS:CSI09:1,2016-10-01T00:00:00Z,29.1015,-89.9782,1016.72,11111222 
WAVCIS,ioos:station:WAVCIS:CSI09:1,2016-10-01T01:00:00Z,29.1015,-89.9782,1017.04,11111222 
WAVCIS,ioos:station:WAVCIS:CSI09:1,2016-10-01T02:00:00Z,29.1015,-89.9782,1017.4,11111222 
WAVCIS,ioos:station:WAVCIS:CSI09:1,2016-10-01T03:00:00Z,29.1015,-89.9782,1017.66,11111222 
WAVCIS,ioos:station:WAVCIS:CSI09:1,2016-10-01T04:00:00Z,29.1015,-89.9782,1017.91,11111222 
WAVCIS,ioos:station:WAVCIS:CSI09:1,2016-10-01T05:00:00Z,29.1015,-89.9782,1017.85,11111222 
WAVCIS,ioos:station:WAVCIS:CSI09:1,2016-10-01T06:00:00Z,29.1015,-89.9782,1017.8,11111222 
WAVCIS,ioos:station:WAVCIS:CSI09:1,2016-10-01T07:00:00Z,29.1015,-89.9782,1017.59,11111222 
WAVCIS,ioos:station:WAVCIS:CSI09:1,2016-10-01T08:00:00Z,29.1015,-89.9782,1017.36,11111222 
WAVCIS,ioos:station:WAVCIS:CSI09:1,2016-10-01T09:00:00Z,29.1015,-89.9782,1016.94,11111222 
WAVCIS,ioos:station:WAVCIS:CSI09:1,2016-10-01T10:00:00Z,29.1015,-89.9782,1016.7,11111222 
WAVCIS,ioos:station:WAVCIS:CSI09:1,2016-10-01T11:00:00Z,29.1015,-89.9782,1016.97,11111222 
WAVCIS,ioos:station:WAVCIS:CSI09:1,2016-10-01T12:00:00Z,29.1015,-89.9782,1017.55,11111222 
WAVCIS,ioos:station:WAVCIS:CSI09:1,2016-10-01T13:00:00Z,29.1015,-89.9782,1017.82,11111222 
WAVCIS,ioos:station:WAVCIS:CSI09:1,2016-10-01T14:00:00Z,29.1015,-89.9782,1018.26,11111222 
WAVCIS,ioos:station:WAVCIS:CSI09:1,2016-10-01T15:00:00Z,29.1015,-89.9782,1018.53,11111222 
WAVCIS,ioos:station:WAVCIS:CSI09:1,2016-10-01T16:00:00Z,29.1015,-89.9782,1018.41,11111222 
WAVCIS,ioos:station:WAVCIS:CSI09:1,2016-10-01T17:00:00Z,29.1015,-89.9782,1018.06,11111222 
WAVCIS,ioos:station:WAVCIS:CSI09:1,2016-10-01T18:00:00Z,29.1015,-89.9782,1017.58,11111222 
WAVCIS,ioos:station:WAVCIS:CSI09:1,2016-10-01T19:00:00Z,29.1015,-89.9782,1016.95,11111222 
WAVCIS,ioos:station:WAVCIS:CSI09:1,2016-10-01T20:00:00Z,29.1015,-89.9782,1016.55,11111222 
WAVCIS,ioos:station:WAVCIS:CSI09:1,2016-10-01T21:00:00Z,29.1015,-89.9782,1016.09,11111222 
WAVCIS,ioos:station:WAVCIS:CSI09:1,2016-10-01T22:00:00Z,29.1015,-89.9782,1015.75,11111222 
WAVCIS,ioos:station:WAVCIS:CSI09:1,2016-10-01T23:00:00Z,29.1015,-89.9782,1015.83,11111222 
WAVCIS,ioos:station:WAVCIS:CSI09:1,2016-10-02T00:00:00Z,29.1015,-89.9782,1015.91,11111222 
WAVCIS,ioos:station:WAVCIS:CSI09:1,2016-10-02T01:00:00Z,29.1015,-89.9782,1016.12,11111222 
WAVCIS,ioos:station:WAVCIS:CSI09:1,2016-10-02T02:00:00Z,29.1015,-89.9782,1016.4,11111222 
WAVCIS,ioos:station:WAVCIS:CSI09:1,2016-10-02T03:00:00Z,29.1015,-89.9782,1016.57,11111222 
WAVCIS,ioos:station:WAVCIS:CSI09:1,2016-10-02T04:00:00Z,29.1015,-89.9782,1016.91,11111222 
WAVCIS,ioos:station:WAVCIS:CSI09:1,2016-10-02T05:00:00Z,29.1015,-89.9782,1016.65,11111222 
WAVCIS,ioos:station:WAVCIS:CSI09:1,2016-10-02T06:00:00Z,29.1015,-89.9782,1016.33,11111222 
WAVCIS,ioos:station:WAVCIS:CSI09:1,2016-10-02T07:00:00Z,29.1015,-89.9782,1016.2,11111222 
WAVCIS,ioos:station:WAVCIS:CSI09:1,2016-10-02T08:00:00Z,29.1015,-89.9782,1016.14,11111222 
WAVCIS,ioos:station:WAVCIS:CSI09:1,2016-10-02T09:00:00Z,29.1015,-89.9782,1015.9,11111222 
WAVCIS,ioos:station:WAVCIS:CSI09:1,2016-10-02T10:00:00Z,29.1015,-89.9782,1016.0,11111222 
WAVCIS,ioos:station:WAVCIS:CSI09:1,2016-10-02T11:00:00Z,29.1015,-89.9782,1015.87,11111222 
WAVCIS,ioos:station:WAVCIS:CSI09:1,2016-10-02T12:00:00Z,29.1015,-89.9782,1016.15,11111222 
WAVCIS,ioos:station:WAVCIS:CSI09:1,2016-10-02T13:00:00Z,29.1015,-89.9782,1016.41,11111222 
WAVCIS,ioos:station:WAVCIS:CSI09:1,2016-10-02T14:00:00Z,29.1015,-89.9782,1016.83,11111222 
WAVCIS,ioos:station:WAVCIS:CSI09:1,2016-10-02T15:00:00Z,29.1015,-89.9782,1017.27,11111222 
WAVCIS,ioos:station:WAVCIS:CSI09:1,2016-10-02T16:00:00Z,29.1015,-89.9782,1016.82,11111222 
WAVCIS,ioos:station:WAVCIS:CSI09:1,2016-10-02T17:00:00Z,29.1015,-89.9782,1016.91,11111222 
WAVCIS,ioos:station:WAVCIS:CSI09:1,2016-10-02T18:00:00Z,29.1015,-89.9782,1016.77,11111222 
WAVCIS,ioos:station:WAVCIS:CSI09:1,2016-10-02T19:00:00Z,29.1015,-89.9782,1015.53,11111222 
WAVCIS,ioos:station:WAVCIS:CSI09:1,2016-10-02T20:00:00Z,29.1015,-89.9782,1015.06,11111222 
WAVCIS,ioos:station:WAVCIS:CSI09:1,2016-10-02T21:00:00Z,29.1015,-89.9782,1014.87,11111222 
WAVCIS,ioos:station:WAVCIS:CSI09:1,2016-10-02T22:00:00Z,29.1015,-89.9782,1014.68,11111222 
WAVCIS,ioos:station:WAVCIS:CSI09:1,2016-10-02T23:00:00Z,29.1015,-89.9782,1014.93,11111222 
WAVCIS,ioos:station:WAVCIS:CSI09:1,2016-10-03T00:00:00Z,29.1015,-89.9782,1015.25,11111222 
WAVCIS,ioos:station:WAVCIS:CSI09:1,2016-10-03T01:00:00Z,29.1015,-89.9782,1015.4,11111222 
WAVCIS,ioos:station:WAVCIS:CSI09:1,2016-10-03T02:00:00Z,29.1015,-89.9782,1015.33,11111222 
WAVCIS,ioos:station:WAVCIS:CSI09:1,2016-10-03T03:00:00Z,29.1015,-89.9782,1015.28,11111222 
WAVCIS,ioos:station:WAVCIS:CSI09:1,2016-10-03T04:00:00Z,29.1015,-89.9782,1015.12,11111222 
WAVCIS,ioos:station:WAVCIS:CSI09:1,2016-10-03T05:00:00Z,29.1015,-89.9782,1014.74,11111222 
WAVCIS,ioos:station:WAVCIS:CSI09:1,2016-10-03T06:00:00Z,29.1015,-89.9782,1014.28,11111222 
WAVCIS,ioos:station:WAVCIS:CSI09:1,2016-10-03T07:00:00Z,29.1015,-89.9782,1014.06,11111222 
WAVCIS,ioos:station:WAVCIS:CSI09:1,2016-10-03T08:00:00Z,29.1015,-89.9782,1013.57,11111222 
WAVCIS,ioos:station:WAVCIS:CSI09:1,2016-10-03T09:00:00Z,29.1015,-89.9782,1012.87,11111222 
WAVCIS,ioos:station:WAVCIS:CSI09:1,2016-10-03T10:00:00Z,29.1015,-89.9782,1013.04,11111222 
WAVCIS,ioos:station:WAVCIS:CSI09:1,2016-10-03T11:00:00Z,29.1015,-89.9782,1013.22,11111222 
WAVCIS,ioos:station:WAVCIS:CSI09:1,2016-10-03T12:00:00Z,29.1015,-89.9782,1013.46,11111222 
WAVCIS,ioos:station:WAVCIS:CSI09:1,2016-10-03T13:00:00Z,29.1015,-89.9782,1013.64,11111222 
WAVCIS,ioos:station:WAVCIS:CSI09:1,2016-10-03T14:00:00Z,29.1015,-89.9782,1013.96,11111222 
WAVCIS,ioos:station:WAVCIS:CSI09:1,2016-10-03T15:00:00Z,29.1015,-89.9782,1014.18,11111222 
WAVCIS,ioos:station:WAVCIS:CSI09:1,2016-10-03T16:00:00Z,29.1015,-89.9782,1014.24,11111222 
WAVCIS,ioos:station:WAVCIS:CSI09:1,2016-10-03T17:00:00Z,29.1015,-89.9782,1013.59,11111222 
WAVCIS,ioos:station:WAVCIS:CSI09:1,2016-10-03T18:00:00Z,29.1015,-89.9782,1012.91,11111222 
WAVCIS,ioos:station:WAVCIS:CSI09:1,2016-10-03T19:00:00Z,29.1015,-89.9782,1012.68,11111222 
WAVCIS,ioos:station:WAVCIS:CSI09:1,2016-10-03T20:00:00Z,29.1015,-89.9782,1012.24,11111222 
WAVCIS,ioos:station:WAVCIS:CSI09:1,2016-10-03T21:00:00Z,29.1015,-89.9782,1011.77,11111222 
WAVCIS,ioos:station:WAVCIS:CSI09:1,2016-10-03T22:00:00Z,29.1015,-89.9782,1011.34,11111222 
WAVCIS,ioos:station:WAVCIS:CSI09:1,2016-10-03T23:00:00Z,29.1015,-89.9782,1011.24,11111222 
WAVCIS,ioos:station:WAVCIS:CSI09:1,2016-10-04T00:00:00Z,29.1015,-89.9782,1011.34,11111222 
WAVCIS,ioos:station:WAVCIS:CSI09:1,2016-10-04T01:00:00Z,29.1015,-89.9782,1011.45,11111222 
WAVCIS,ioos:station:WAVCIS:CSI09:1,2016-10-04T02:00:00Z,29.1015,-89.9782,1011.87,11111222 
WAVCIS,ioos:station:WAVCIS:CSI09:1,2016-10-04T03:00:00Z,29.1015,-89.9782,1012.13,11111222 
WAVCIS,ioos:station:WAVCIS:CSI09:1,2016-10-04T04:00:00Z,29.1015,-89.9782,1012.23,11111222 
WAVCIS,ioos:station:WAVCIS:CSI09:1,2016-10-04T05:00:00Z,29.1015,-89.9782,1011.83,11111222 
WAVCIS,ioos:station:WAVCIS:CSI09:1,2016-10-04T06:00:00Z,29.1015,-89.9782,1011.6,11111222 
WAVCIS,ioos:station:WAVCIS:CSI09:1,2016-10-04T07:00:00Z,29.1015,-89.9782,1011.23,11111222 
WAVCIS,ioos:station:WAVCIS:CSI09:1,2016-10-04T08:00:00Z,29.1015,-89.9782,1011.17,11111222 
WAVCIS,ioos:station:WAVCIS:CSI09:1,2016-10-04T09:00:00Z,29.1015,-89.9782,1010.84,11111222 
WAVCIS,ioos:station:WAVCIS:CSI09:1,2016-10-04T10:00:00Z,29.1015,-89.9782,1011.08,11111222 
WAVCIS,ioos:station:WAVCIS:CSI09:1,2016-10-04T11:00:00Z,29.1015,-89.9782,1011.54,11111222 
WAVCIS,ioos:station:WAVCIS:CSI09:1,2016-10-04T12:00:00Z,29.1015,-89.9782,1011.77,11111222 
WAVCIS,ioos:station:WAVCIS:CSI09:1,2016-10-04T13:00:00Z,29.1015,-89.9782,1011.76,11111222 
WAVCIS,ioos:station:WAVCIS:CSI09:1,2016-10-04T14:00:00Z,29.1015,-89.9782,1012.2,11111222 
WAVCIS,ioos:station:WAVCIS:CSI09:1,2016-10-04T15:00:00Z,29.1015,-89.9782,1012.69,11111222 
WAVCIS,ioos:station:WAVCIS:CSI09:1,2016-10-04T16:00:00Z,29.1015,-89.9782,1012.66,11111222 
WAVCIS,ioos:station:WAVCIS:CSI09:1,2016-10-04T17:00:00Z,29.1015,-89.9782,1012.47,11111222 
WAVCIS,ioos:station:WAVCIS:CSI09:1,2016-10-04T18:00:00Z,29.1015,-89.9782,1012.16,11111222 
WAVCIS,ioos:station:WAVCIS:CSI09:1,2016-10-04T19:00:00Z,29.1015,-89.9782,1011.45,11111222 
WAVCIS,ioos:station:WAVCIS:CSI09:1,2016-10-04T20:00:00Z,29.1015,-89.9782,1011.27,11111222 
WAVCIS,ioos:station:WAVCIS:CSI09:1,2016-10-04T21:00:00Z,29.1015,-89.9782,1011.32,11111222 
WAVCIS,ioos:station:WAVCIS:CSI09:1,2016-10-04T22:00:00Z,29.1015,-89.9782,1011.25,11111222 
WAVCIS,ioos:station:WAVCIS:CSI09:1,2016-10-04T23:00:00Z,29.1015,-89.9782,1011.44,11111222 
WAVCIS,ioos:station:WAVCIS:CSI09:1,2016-10-05T00:00:00Z,29.1015,-89.9782,1011.76,11111222 
WAVCIS,ioos:station:WAVCIS:CSI09:1,2016-10-05T01:00:00Z,29.1015,-89.9782,1012.31,11111222 
WAVCIS,ioos:station:WAVCIS:CSI09:1,2016-10-05T02:00:00Z,29.1015,-89.9782,1012.65,11111222 
WAVCIS,ioos:station:WAVCIS:CSI09:1,2016-10-05T03:00:00Z,29.1015,-89.9782,1013.22,11111222 
WAVCIS,ioos:station:WAVCIS:CSI09:1,2016-10-05T04:00:00Z,29.1015,-89.9782,1013.0,11111222 
WAVCIS,ioos:station:WAVCIS:CSI09:1,2016-10-05T05:00:00Z,29.1015,-89.9782,1012.6,11111222 
WAVCIS,ioos:station:WAVCIS:CSI09:1,2016-10-05T06:00:00Z,29.1015,-89.9782,1012.55,11111222 
WAVCIS,ioos:station:WAVCIS:CSI09:1,2016-10-05T07:00:00Z,29.1015,-89.9782,1012.3,11111222 
WAVCIS,ioos:station:WAVCIS:CSI09:1,2016-10-05T08:00:00Z,29.1015,-89.9782,1012.1,11111222 
WAVCIS,ioos:station:WAVCIS:CSI09:1,2016-10-05T09:00:00Z,29.1015,-89.9782,1012.15,11111222 
WAVCIS,ioos:station:WAVCIS:CSI09:1,2016-10-05T10:00:00Z,29.1015,-89.9782,1012.59,11111222 
WAVCIS,ioos:station:WAVCIS:CSI09:1,2016-10-05T11:00:00Z,29.1015,-89.9782,1012.61,11111222 
WAVCIS,ioos:station:WAVCIS:CSI09:1,2016-10-05T12:00:00Z,29.1015,-89.9782,1012.86,11111222 
WAVCIS,ioos:station:WAVCIS:CSI09:1,2016-10-05T13:00:00Z,29.1015,-89.9782,1013.48,11111222 
WAVCIS,ioos:station:WAVCIS:CSI09:1,2016-10-05T14:00:00Z,29.1015,-89.9782,1014.08,11111222 
WAVCIS,ioos:station:WAVCIS:CSI09:1,2016-10-05T15:00:00Z,29.1015,-89.9782,1014.81,11111222 
WAVCIS,ioos:station:WAVCIS:CSI09:1,2016-10-05T16:00:00Z,29.1015,-89.9782,1014.87,11111222 
WAVCIS,ioos:station:WAVCIS:CSI09:1,2016-10-05T17:00:00Z,29.1015,-89.9782,1014.6,11111222 
WAVCIS,ioos:station:WAVCIS:CSI09:1,2016-10-05T18:00:00Z,29.1015,-89.9782,1014.37,11111222 
WAVCIS,ioos:station:WAVCIS:CSI09:1,2016-10-05T19:00:00Z,29.1015,-89.9782,1013.67,11111222 
WAVCIS,ioos:station:WAVCIS:CSI09:1,2016-10-05T20:00:00Z,29.1015,-89.9782,1013.2,11111222 
WAVCIS,ioos:station:WAVCIS:CSI09:1,2016-10-05T21:00:00Z,29.1015,-89.9782,1012.92,11111222 
WAVCIS,ioos:station:WAVCIS:CSI09:1,2016-10-05T22:00:00Z,29.1015,-89.9782,1012.82,11111222 
WAVCIS,ioos:station:WAVCIS:CSI09:1,2016-10-05T23:00:00Z,29.1015,-89.9782,1013.06,11111222 
WAVCIS,ioos:station:WAVCIS:CSI09:1,2016-10-06T00:00:00Z,29.1015,-89.9782,1013.49,11111222 
WAVCIS,ioos:station:WAVCIS:CSI09:1,2016-10-06T01:00:00Z,29.1015,-89.9782,1013.75,11111222 
WAVCIS,ioos:station:WAVCIS:CSI09:1,2016-10-06T02:00:00Z,29.1015,-89.9782,1014.12,11111222 
WAVCIS,ioos:station:WAVCIS:CSI09:1,2016-10-06T03:00:00Z,29.1015,-89.9782,1014.49,11111222 
WAVCIS,ioos:station:WAVCIS:CSI09:1,2016-10-06T04:00:00Z,29.1015,-89.9782,1014.74,11111222 
WAVCIS,ioos:station:WAVCIS:CSI09:1,2016-10-06T05:00:00Z,29.1015,-89.9782,1014.57,11111222 
WAVCIS,ioos:station:WAVCIS:CSI09:1,2016-10-06T06:00:00Z,29.1015,-89.9782,1014.2,11111222 
WAVCIS,ioos:station:WAVCIS:CSI09:1,2016-10-06T07:00:00Z,29.1015,-89.9782,1013.57,11111222 
WAVCIS,ioos:station:WAVCIS:CSI09:1,2016-10-06T08:00:00Z,29.1015,-89.9782,1013.22,11111222 
WAVCIS,ioos:station:WAVCIS:CSI09:1,2016-10-06T09:00:00Z,29.1015,-89.9782,1012.82,11111222 
WAVCIS,ioos:station:WAVCIS:CSI09:1,2016-10-06T10:00:00Z,29.1015,-89.9782,1012.92,11111222 
WAVCIS,ioos:station:WAVCIS:CSI09:1,2016-10-06T11:00:00Z,29.1015,-89.9782,1012.99,11111222 
WAVCIS,ioos:station:WAVCIS:CSI09:1,2016-10-06T12:00:00Z,29.1015,-89.9782,1013.28,11111222 
WAVCIS,ioos:station:WAVCIS:CSI09:1,2016-10-06T13:00:00Z,29.1015,-89.9782,1013.75,11111222 
WAVCIS,ioos:station:WAVCIS:CSI09:1,2016-10-06T14:00:00Z,29.1015,-89.9782,1013.86,11111222 
WAVCIS,ioos:station:WAVCIS:CSI09:1,2016-10-06T15:00:00Z,29.1015,-89.9782,1014.26,11111222 
WAVCIS,ioos:station:WAVCIS:CSI09:1,2016-10-06T16:00:00Z,29.1015,-89.9782,1014.07,11111222 
WAVCIS,ioos:station:WAVCIS:CSI09:1,2016-10-06T17:00:00Z,29.1015,-89.9782,1013.98,11111222 
WAVCIS,ioos:station:WAVCIS:CSI09:1,2016-10-06T18:00:00Z,29.1015,-89.9782,1013.56,11111222 
WAVCIS,ioos:station:WAVCIS:CSI09:1,2016-10-06T19:00:00Z,29.1015,-89.9782,1013.08,11111222 
WAVCIS,ioos:station:WAVCIS:CSI09:1,2016-10-06T20:00:00Z,29.1015,-89.9782,1012.68,11111222 
WAVCIS,ioos:station:WAVCIS:CSI09:1,2016-10-06T21:00:00Z,29.1015,-89.9782,1012.39,11111222 
WAVCIS,ioos:station:WAVCIS:CSI09:1,2016-10-06T22:00:00Z,29.1015,-89.9782,1012.42,11111222 
WAVCIS,ioos:station:WAVCIS:CSI09:1,2016-10-06T23:00:00Z,29.1015,-89.9782,1012.43,11111222 
WAVCIS,ioos:station:WAVCIS:CSI09:1,2016-10-07T00:00:00Z,29.1015,-89.9782,1012.52,11111222 
WAVCIS,ioos:station:WAVCIS:CSI09:1,2016-10-07T01:00:00Z,29.1015,-89.9782,1012.72,11111222 
WAVCIS,ioos:station:WAVCIS:CSI09:1,2016-10-07T02:00:00Z,29.1015,-89.9782,1013.06,11111222 
WAVCIS,ioos:station:WAVCIS:CSI09:1,2016-10-07T03:00:00Z,29.1015,-89.9782,1013.02,11111222 
WAVCIS,ioos:station:WAVCIS:CSI09:1,2016-10-07T04:00:00Z,29.1015,-89.9782,1013.13,11111222 
WAVCIS,ioos:station:WAVCIS:CSI09:1,2016-10-07T05:00:00Z,29.1015,-89.9782,1012.44,11111222 
WAVCIS,ioos:station:WAVCIS:CSI09:1,2016-10-07T06:00:00Z,29.1015,-89.9782,1011.89,11111222 
WAVCIS,ioos:station:WAVCIS:CSI09:1,2016-10-07T07:00:00Z,29.1015,-89.9782,1011.37,11111222 
WAVCIS,ioos:station:WAVCIS:CSI09:1,2016-10-07T08:00:00Z,29.1015,-89.9782,1011.42,11111222 
WAVCIS,ioos:station:WAVCIS:CSI09:1,2016-10-07T09:00:00Z,29.1015,-89.9782,1011.29,11111222 
WAVCIS,ioos:station:WAVCIS:CSI09:1,2016-10-07T10:00:00Z,29.1015,-89.9782,1011.56,11111222 
WAVCIS,ioos:station:WAVCIS:CSI09:1,2016-10-07T11:00:00Z,29.1015,-89.9782,1011.94,11111222 
WAVCIS,ioos:station:WAVCIS:CSI09:1,2016-10-07T12:00:00Z,29.1015,-89.9782,1012.35,11111222 
WAVCIS,ioos:station:WAVCIS:CSI09:1,2016-10-07T13:00:00Z,29.1015,-89.9782,1012.46,11111222 
WAVCIS,ioos:station:WAVCIS:CSI09:1,2016-10-07T14:00:00Z,29.1015,-89.9782,1013.3,11111222 
WAVCIS,ioos:station:WAVCIS:CSI09:1,2016-10-07T15:00:00Z,29.1015,-89.9782,1013.74,11111222 
WAVCIS,ioos:station:WAVCIS:CSI09:1,2016-10-07T16:00:00Z,29.1015,-89.9782,1013.79,11111222 
WAVCIS,ioos:station:WAVCIS:CSI09:1,2016-10-07T17:00:00Z,29.1015,-89.9782,1013.72,11111222 
WAVCIS,ioos:station:WAVCIS:CSI09:1,2016-10-07T18:00:00Z,29.1015,-89.9782,1013.7,11111222 
WAVCIS,ioos:station:WAVCIS:CSI09:1,2016-10-07T19:00:00Z,29.1015,-89.9782,1012.92,11111222 
WAVCIS,ioos:station:WAVCIS:CSI09:1,2016-10-07T20:00:00Z,29.1015,-89.9782,1012.2,11111222 
WAVCIS,ioos:station:WAVCIS:CSI09:1,2016-10-07T21:00:00Z,29.1015,-89.9782,1011.83,11111222 
WAVCIS,ioos:station:WAVCIS:CSI09:1,2016-10-07T22:00:00Z,29.1015,-89.9782,1011.88,11111222 
WAVCIS,ioos:station:WAVCIS:CSI09:1,2016-10-07T23:00:00Z,29.1015,-89.9782,1011.93,11111222 
WAVCIS,ioos:station:WAVCIS:CSI09:1,2016-10-08T00:00:00Z,29.1015,-89.9782,1012.07,11111222 
WAVCIS,ioos:station:WAVCIS:CSI09:1,2016-10-08T01:00:00Z,29.1015,-89.9782,1012.32,11111222 
WAVCIS,ioos:station:WAVCIS:CSI09:1,2016-10-08T02:00:00Z,29.1015,-89.9782,1012.89,11111222 
WAVCIS,ioos:station:WAVCIS:CSI09:1,2016-10-08T03:00:00Z,29.1015,-89.9782,1013.35,11111222 
WAVCIS,ioos:station:WAVCIS:CSI09:1,2016-10-08T04:00:00Z,29.1015,-89.9782,1013.5,11111222 
WAVCIS,ioos:station:WAVCIS:CSI09:1,2016-10-08T05:00:00Z,29.1015,-89.9782,1013.49,11111222 
WAVCIS,ioos:station:WAVCIS:CSI09:1,2016-10-08T06:00:00Z,29.1015,-89.9782,1013.41,11111222 
WAVCIS,ioos:station:WAVCIS:CSI09:1,2016-10-08T07:00:00Z,29.1015,-89.9782,1013.25,11111222 
WAVCIS,ioos:station:WAVCIS:CSI09:1,2016-10-08T08:00:00Z,29.1015,-89.9782,1013.31,11111222 
WAVCIS,ioos:station:WAVCIS:CSI09:1,2016-10-08T09:00:00Z,29.1015,-89.9782,1013.25,11111222 
WAVCIS,ioos:station:WAVCIS:CSI09:1,2016-10-08T10:00:00Z,29.1015,-89.9782,1013.46,11111222 
WAVCIS,ioos:station:WAVCIS:CSI09:1,2016-10-08T11:00:00Z,29.1015,-89.9782,1014.24,11111222 
WAVCIS,ioos:station:WAVCIS:CSI09:1,2016-10-08T12:00:00Z,29.1015,-89.9782,1014.94,11111222 
WAVCIS,ioos:station:WAVCIS:CSI09:1,2016-10-08T13:00:00Z,29.1015,-89.9782,1015.57,11111222 
WAVCIS,ioos:station:WAVCIS:CSI09:1,2016-10-08T14:00:00Z,29.1015,-89.9782,1016.19,11111222 
WAVCIS,ioos:station:WAVCIS:CSI09:1,2016-10-08T15:00:00Z,29.1015,-89.9782,1016.54,11111222 
WAVCIS,ioos:station:WAVCIS:CSI09:1,2016-10-08T16:00:00Z,29.1015,-89.9782,1016.55,11111222 
WAVCIS,ioos:station:WAVCIS:CSI09:1,2016-10-08T17:00:00Z,29.1015,-89.9782,1016.44,11111222 
WAVCIS,ioos:station:WAVCIS:CSI09:1,2016-10-08T18:00:00Z,29.1015,-89.9782,1015.96,11111222 
WAVCIS,ioos:station:WAVCIS:CSI09:1,2016-10-08T19:00:00Z,29.1015,-89.9782,1015.22,11111222 
WAVCIS,ioos:station:WAVCIS:CSI09:1,2016-10-08T20:00:00Z,29.1015,-89.9782,1014.87,11111222 
WAVCIS,ioos:station:WAVCIS:CSI09:1,2016-10-08T21:00:00Z,29.1015,-89.9782,1014.72,11111222 
WAVCIS,ioos:station:WAVCIS:CSI09:1,2016-10-08T22:00:00Z,29.1015,-89.9782,1014.62,11111222 
WAVCIS,ioos:station:WAVCIS:CSI09:1,2016-10-08T23:00:00Z,29.1015,-89.9782,1014.49,11111222 
WAVCIS,ioos:station:WAVCIS:CSI09:1,2016-10-09T00:00:00Z,29.1015,-89.9782,1015.07,11111222 
WAVCIS,ioos:station:WAVCIS:CSI09:1,2016-10-09T01:00:00Z,29.1015,-89.9782,1015.68,11111222 
WAVCIS,ioos:station:WAVCIS:CSI09:1,2016-10-09T02:00:00Z,29.1015,-89.9782,1016.2,11111222 
WAVCIS,ioos:station:WAVCIS:CSI09:1,2016-10-09T03:00:00Z,29.1015,-89.9782,1016.67,11111222 
WAVCIS,ioos:station:WAVCIS:CSI09:1,2016-10-09T04:00:00Z,29.1015,-89.9782,1016.88,11111222 
WAVCIS,ioos:station:WAVCIS:CSI09:1,2016-10-09T05:00:00Z,29.1015,-89.9782,1017.04,11111222 
WAVCIS,ioos:station:WAVCIS:CSI09:1,2016-10-09T06:00:00Z,29.1015,-89.9782,1016.82,11111222 
WAVCIS,ioos:station:WAVCIS:CSI09:1,2016-10-09T07:00:00Z,29.1015,-89.9782,1016.99,11111222 
WAVCIS,ioos:station:WAVCIS:CSI09:1,2016-10-09T08:00:00Z,29.1015,-89.9782,1017.01,11111222 
WAVCIS,ioos:station:WAVCIS:CSI09:1,2016-10-09T09:00:00Z,29.1015,-89.9782,1017.03,11111222 
WAVCIS,ioos:station:WAVCIS:CSI09:1,2016-10-09T10:00:00Z,29.1015,-89.9782,1017.24,11111222 
WAVCIS,ioos:station:WAVCIS:CSI09:1,2016-10-09T11:00:00Z,29.1015,-89.9782,1017.63,11111222 
WAVCIS,ioos:station:WAVCIS:CSI09:1,2016-10-09T12:00:00Z,29.1015,-89.9782,1018.26,11111222 
WAVCIS,ioos:station:WAVCIS:CSI09:1,2016-10-09T13:00:00Z,29.1015,-89.9782,1018.8,11111222 
WAVCIS,ioos:station:WAVCIS:CSI09:1,2016-10-09T14:00:00Z,29.1015,-89.9782,1019.12,11111222 
WAVCIS,ioos:station:WAVCIS:CSI09:1,2016-10-09T15:00:00Z,29.1015,-89.9782,1019.66,11111222 
WAVCIS,ioos:station:WAVCIS:CSI09:1,2016-10-09T16:00:00Z,29.1015,-89.9782,1019.83,11111222 
WAVCIS,ioos:station:WAVCIS:CSI09:1,2016-10-09T17:00:00Z,29.1015,-89.9782,1019.57,11111222 
WAVCIS,ioos:station:WAVCIS:CSI09:1,2016-10-09T18:00:00Z,29.1015,-89.9782,1019.02,11111222 
WAVCIS,ioos:station:WAVCIS:CSI09:1,2016-10-09T19:00:00Z,29.1015,-89.9782,1018.5,11111222 
WAVCIS,ioos:station:WAVCIS:CSI09:1,2016-10-09T20:00:00Z,29.1015,-89.9782,1018.12,11111222 
WAVCIS,ioos:station:WAVCIS:CSI09:1,2016-10-09T21:00:00Z,29.1015,-89.9782,1018.54,11111222 
WAVCIS,ioos:station:WAVCIS:CSI09:1,2016-10-09T22:00:00Z,29.1015,-89.9782,1018.6,11111222 
WAVCIS,ioos:station:WAVCIS:CSI09:1,2016-10-09T23:00:00Z,29.1015,-89.9782,1018.91,11111222 
WAVCIS,ioos:station:WAVCIS:CSI09:1,2016-10-10T00:00:00Z,29.1015,-89.9782,1019.27,11111222 
WAVCIS,ioos:station:WAVCIS:CSI09:1,2016-10-10T01:00:00Z,29.1015,-89.9782,1019.76,11111222 
WAVCIS,ioos:station:WAVCIS:CSI09:1,2016-10-10T02:00:00Z,29.1015,-89.9782,1020.3,11111222 
WAVCIS,ioos:station:WAVCIS:CSI09:1,2016-10-10T03:00:00Z,29.1015,-89.9782,1020.63,11111222 
WAVCIS,ioos:station:WAVCIS:CSI09:1,2016-10-10T04:00:00Z,29.1015,-89.9782,1020.46,11111222 
WAVCIS,ioos:station:WAVCIS:CSI09:1,2016-10-10T05:00:00Z,29.1015,-89.9782,1019.9,11111222 
WAVCIS,ioos:station:WAVCIS:CSI09:1,2016-10-10T06:00:00Z,29.1015,-89.9782,1019.57,11111222 
WAVCIS,ioos:station:WAVCIS:CSI09:1,2016-10-10T07:00:00Z,29.1015,-89.9782,1018.95,11111222 
WAVCIS,ioos:station:WAVCIS:CSI09:1,2016-10-10T08:00:00Z,29.1015,-89.9782,1018.75,11111222 
WAVCIS,ioos:station:WAVCIS:CSI09:1,2016-10-10T09:00:00Z,29.1015,-89.9782,1018.28,11111222 
WAVCIS,ioos:station:WAVCIS:CSI09:1,2016-10-10T10:00:00Z,29.1015,-89.9782,1018.58,11111222 
WAVCIS,ioos:station:WAVCIS:CSI09:1,2016-10-10T11:00:00Z,29.1015,-89.9782,1019.11,11111222 
WAVCIS,ioos:station:WAVCIS:CSI09:1,2016-10-10T12:00:00Z,29.1015,-89.9782,1019.67,11111222 
WAVCIS,ioos:station:WAVCIS:CSI09:1,2016-10-10T13:00:00Z,29.1015,-89.9782,1020.46,11111222 
WAVCIS,ioos:station:WAVCIS:CSI09:1,2016-10-10T14:00:00Z,29.1015,-89.9782,1020.91,11111222 
WAVCIS,ioos:station:WAVCIS:CSI09:1,2016-10-10T15:00:00Z,29.1015,-89.9782,1021.11,11111222 
WAVCIS,ioos:station:WAVCIS:CSI09:1,2016-10-10T16:00:00Z,29.1015,-89.9782,1021.18,11111222 
WAVCIS,ioos:station:WAVCIS:CSI09:1,2016-10-10T17:00:00Z,29.1015,-89.9782,1020.82,11111222 
WAVCIS,ioos:station:WAVCIS:CSI09:1,2016-10-10T18:00:00Z,29.1015,-89.9782,1020.49,11111222 
WAVCIS,ioos:station:WAVCIS:CSI09:1,2016-10-10T19:00:00Z,29.1015,-89.9782,1019.89,11111222 
WAVCIS,ioos:station:WAVCIS:CSI09:1,2016-10-10T20:00:00Z,29.1015,-89.9782,1019.67,11111222 
WAVCIS,ioos:station:WAVCIS:CSI09:1,2016-10-10T21:00:00Z,29.1015,-89.9782,1019.83,11111222 
WAVCIS,ioos:station:WAVCIS:CSI09:1,2016-10-10T22:00:00Z,29.1015,-89.9782,1019.73,11111222 
WAVCIS,ioos:station:WAVCIS:CSI09:1,2016-10-10T23:00:00Z,29.1015,-89.9782,1019.99,11111222 
WAVCIS,ioos:station:WAVCIS:CSI09:1,2016-10-11T00:00:00Z,29.1015,-89.9782,1020.21,11111222 
WAVCIS,ioos:station:WAVCIS:CSI09:1,2016-10-11T01:00:00Z,29.1015,-89.9782,1020.6,11111222 
WAVCIS,ioos:station:WAVCIS:CSI09:1,2016-10-11T02:00:00Z,29.1015,-89.9782,1021.34,11111222 
WAVCIS,ioos:station:WAVCIS:CSI09:1,2016-10-11T03:00:00Z,29.1015,-89.9782,1021.68,11111222 
WAVCIS,ioos:station:WAVCIS:CSI09:1,2016-10-11T04:00:00Z,29.1015,-89.9782,1021.67,11111222 
WAVCIS,ioos:station:WAVCIS:CSI09:1,2016-10-11T05:00:00Z,29.1015,-89.9782,1021.37,11111222 
WAVCIS,ioos:station:WAVCIS:CSI09:1,2016-10-11T06:00:00Z,29.1015,-89.9782,1021.12,11111222 
WAVCIS,ioos:station:WAVCIS:CSI09:1,2016-10-11T07:00:00Z,29.1015,-89.9782,1020.97,11111222 
WAVCIS,ioos:station:WAVCIS:CSI09:1,2016-10-11T08:00:00Z,29.1015,-89.9782,1020.37,11111222 
WAVCIS,ioos:station:WAVCIS:CSI09:1,2016-10-11T09:00:00Z,29.1015,-89.9782,1020.19,11111222 
WAVCIS,ioos:station:WAVCIS:CSI09:1,2016-10-11T10:00:00Z,29.1015,-89.9782,1020.13,11111222 
WAVCIS,ioos:station:WAVCIS:CSI09:1,2016-10-11T11:00:00Z,29.1015,-89.9782,1020.51,11111222 
WAVCIS,ioos:station:WAVCIS:CSI09:1,2016-10-11T12:00:00Z,29.1015,-89.9782,1021.17,11111222 
WAVCIS,ioos:station:WAVCIS:CSI09:1,2016-10-11T13:00:00Z,29.1015,-89.9782,1021.41,11111222 
WAVCIS,ioos:station:WAVCIS:CSI09:1,2016-10-11T14:00:00Z,29.1015,-89.9782,1021.84,11111222 
WAVCIS,ioos:station:WAVCIS:CSI09:1,2016-10-11T15:00:00Z,29.1015,-89.9782,1022.59,11111222 
WAVCIS,ioos:station:WAVCIS:CSI09:1,2016-10-11T16:00:00Z,29.1015,-89.9782,1022.8,11111222 
WAVCIS,ioos:station:WAVCIS:CSI09:1,2016-10-11T17:00:00Z,29.1015,-89.9782,1022.42,11111222 
WAVCIS,ioos:station:WAVCIS:CSI09:1,2016-10-11T18:00:00Z,29.1015,-89.9782,1021.72,11111222 
WAVCIS,ioos:station:WAVCIS:CSI09:1,2016-10-11T19:00:00Z,29.1015,-89.9782,1020.93,11111222 
WAVCIS,ioos:station:WAVCIS:CSI09:1,2016-10-11T20:00:00Z,29.1015,-89.9782,1019.99,11111222 
WAVCIS,ioos:station:WAVCIS:CSI09:1,2016-10-11T21:00:00Z,29.1015,-89.9782,1019.8,11111222 
WAVCIS,ioos:station:WAVCIS:CSI09:1,2016-10-11T22:00:00Z,29.1015,-89.9782,1019.53,11111222 